PGT5505 LTAI-EHRD

Flight info

Callsign PGT5505
Flight time 3h 42m
Altitude 34000
Route EKNUD UQ26 BKZ UL615 DIGBO UQ26 TUDBU Q26 UPAMA DCT TIXIP DCT PATAK DCT KATQA DCT ELMEK DCT VEXIL DCT KATCE DCT HMM L602 RKN
Aircraft A320/M-SDE3FGHIRWY/LB1

Departure

Time 2026-05-04 06:14
Airport Antalya International Airport (LTAI)

Arrival

Time 2026-05-04 09:56
Airport Rotterdam The Hague Airport (EHRD)
Time Latitude Longitude Altitude Speed Heading
2026-05-04 05:28 36.89718 30.80431 198 ft 0 kts 96°
2026-05-04 05:58 36.89720 30.80401 192 ft 4 kts 94°
2026-05-04 05:58 36.89723 30.80368 197 ft 4 kts 102°
2026-05-04 05:59 36.89730 30.80336 200 ft 4 kts 115°
2026-05-04 05:59 36.89736 30.80320 192 ft 0 kts 116°
2026-05-04 06:05 36.89709 30.80319 192 ft 2 kts 191°
2026-05-04 06:05 36.89673 30.80310 195 ft 3 kts 189°
2026-05-04 06:05 36.89649 30.80307 199 ft 4 kts 186°
2026-05-04 06:06 36.89620 30.80304 198 ft 4 kts 182°
2026-05-04 06:06 36.89593 30.80321 199 ft 5 kts 133°
2026-05-04 06:06 36.89583 30.80367 198 ft 7 kts 94°
2026-05-04 06:06 36.89579 30.80426 199 ft 7 kts 96°
2026-05-04 06:07 36.89573 30.80495 201 ft 8 kts 96°
2026-05-04 06:07 36.89566 30.80570 201 ft 9 kts 97°
2026-05-04 06:07 36.89556 30.80652 202 ft 10 kts 108°
2026-05-04 06:07 36.89495 30.80681 198 ft 11 kts 186°
2026-05-04 06:08 36.89413 30.80670 191 ft 13 kts 186°
2026-05-04 06:08 36.89315 30.80657 201 ft 16 kts 185°
2026-05-04 06:08 36.89200 30.80641 196 ft 17 kts 187°
2026-05-04 06:08 36.89082 30.80623 194 ft 17 kts 187°
2026-05-04 06:09 36.88969 30.80606 192 ft 16 kts 184°
2026-05-04 06:09 36.88865 30.80593 200 ft 14 kts 187°
2026-05-04 06:11 36.88280 30.80514 203 ft 17 kts 186°
2026-05-04 06:11 36.88174 30.80501 199 ft 11 kts 173°
2026-05-04 06:13 36.89292 30.80884 193 ft 135 kts
2026-05-04 06:14 36.96385 30.83647 2699 ft 213 kts 19°
2026-05-04 06:14 36.97750 30.84329 3379 ft 215 kts 19°
2026-05-04 06:15 36.99140 30.85028 4049 ft 217 kts 19°
2026-05-04 06:15 37.00616 30.85756 4350 ft 239 kts 19°
2026-05-04 06:15 37.02237 30.86540 4684 ft 259 kts 19°
2026-05-04 06:15 37.03944 30.87364 5365 ft 265 kts 19°
2026-05-04 06:16 37.05679 30.88204 6074 ft 268 kts 18°
2026-05-04 06:16 37.07497 30.88732 6749 ft 270 kts
2026-05-04 06:16 37.09365 30.88537 7439 ft 271 kts 347°
2026-05-04 06:16 37.11196 30.88075 8133 ft 273 kts 347°
2026-05-04 06:17 37.13067 30.87602 8813 ft 276 kts 347°
2026-05-04 06:17 37.14956 30.87126 9494 ft 278 kts 347°
2026-05-04 06:17 37.16869 30.86644 10078 ft 286 kts 347°
2026-05-04 06:17 37.18896 30.86133 10212 ft 308 kts 347°
2026-05-04 06:18 37.21067 30.85585 10382 ft 327 kts 347°
2026-05-04 06:18 37.23327 30.85015 10866 ft 334 kts 347°
2026-05-04 06:18 37.25621 30.84439 11457 ft 337 kts 348°
2026-05-04 06:20 37.42099 30.80339 15450 ft 354 kts 353°
2026-05-04 06:20 37.44572 30.80249 15955 ft 358 kts
2026-05-04 06:21 37.54610 30.80635 17911 ft 366 kts
2026-05-04 06:21 37.57160 30.80758 18381 ft 368 kts
2026-05-04 06:22 37.59733 30.80882 18811 ft 371 kts
2026-05-04 06:22 37.62317 30.81005 19264 ft 372 kts
2026-05-04 06:25 37.97033 30.81328 24164 ft 396 kts 359°
2026-05-04 06:25 37.99793 30.81271 24486 ft 398 kts 359°
2026-05-04 06:26 38.02567 30.81218 24793 ft 399 kts 359°
2026-05-04 06:26 38.05351 30.81165 25082 ft 401 kts 360°
2026-05-04 06:26 38.08142 30.81112 25360 ft 402 kts 360°
2026-05-04 06:26 38.10948 30.81058 25624 ft 404 kts 360°
2026-05-04 06:27 38.22236 30.79494 26712 ft 413 kts 354°
2026-05-04 06:28 38.25086 30.79018 26974 ft 414 kts 354°
2026-05-04 06:28 38.27948 30.78543 27229 ft 416 kts 354°
2026-05-04 06:28 38.30784 30.78075 27453 ft 418 kts 354°
2026-05-04 06:28 38.33679 30.77599 27702 ft 420 kts 354°
2026-05-04 06:29 38.36580 30.77123 27949 ft 421 kts 354°
2026-05-04 06:29 38.39490 30.76644 28181 ft 423 kts 354°
2026-05-04 06:29 38.42414 30.76160 28391 ft 424 kts 354°
2026-05-04 06:29 38.45344 30.75675 28593 ft 426 kts 354°
2026-05-04 06:30 38.48291 30.75185 28805 ft 427 kts 354°
2026-05-04 06:30 38.51240 30.74695 29020 ft 429 kts 354°
2026-05-04 06:30 38.54166 30.74206 29205 ft 430 kts 354°
2026-05-04 06:30 38.57138 30.73711 29401 ft 432 kts 354°
2026-05-04 06:31 38.60123 30.73215 29607 ft 433 kts 355°
2026-05-04 06:31 38.63107 30.72717 29875 ft 432 kts 354°
2026-05-04 06:31 38.66084 30.72216 30173 ft 431 kts 355°
2026-05-04 06:31 38.69053 30.71721 30421 ft 431 kts 355°
2026-05-04 06:32 38.72035 30.71227 30639 ft 432 kts 355°
2026-05-04 06:33 38.92307 30.64404 32044 ft 441 kts 335°
2026-05-04 06:34 38.95044 30.62628 32237 ft 442 kts 335°
2026-05-04 06:34 38.97792 30.60846 32435 ft 442 kts 335°
2026-05-04 06:34 39.00503 30.59084 32634 ft 442 kts 335°
2026-05-04 06:34 39.03251 30.57293 32815 ft 443 kts 335°
2026-05-04 06:35 39.05999 30.55495 33003 ft 444 kts 335°
2026-05-04 06:36 39.25266 30.42868 33917 ft 445 kts 334°
2026-05-04 06:37 39.30776 30.39246 33906 ft 444 kts 335°
2026-05-04 06:37 39.36277 30.35621 33915 ft 445 kts 335°
2026-05-04 06:38 39.41794 30.31967 33903 ft 445 kts 335°
2026-05-04 06:40 39.64294 30.18928 33896 ft 443 kts 341°
2026-05-04 06:40 39.69975 30.15955 33893 ft 444 kts 340°
2026-05-04 06:41 39.75678 30.12872 33895 ft 443 kts 340°
2026-05-04 06:41 39.81378 30.09785 33900 ft 444 kts 340°
2026-05-04 06:42 39.87077 30.06714 33905 ft 443 kts 341°
2026-05-04 06:44 40.09865 29.94411 33951 ft 444 kts 341°
2026-05-04 06:44 40.15538 29.91336 33958 ft 445 kts 341°
2026-05-04 06:45 40.21256 29.88238 33970 ft 445 kts 341°
2026-05-04 06:45 40.26964 29.85135 33971 ft 444 kts 340°
2026-05-04 06:46 40.32682 29.82010 33982 ft 445 kts 341°
2026-05-04 06:46 40.38385 29.78894 33990 ft 445 kts 341°
2026-05-04 06:48 40.61221 29.66363 34010 ft 445 kts 341°
2026-05-04 06:50 40.81615 29.47340 33999 ft 454 kts 325°
2026-05-04 06:51 40.86555 29.42121 34000 ft 455 kts 326°
2026-05-04 06:51 40.91453 29.36939 33998 ft 455 kts 326°
2026-05-04 06:52 40.96392 29.31701 33994 ft 455 kts 326°
2026-05-04 06:52 41.01329 29.26439 33993 ft 455 kts 326°
2026-05-04 06:53 41.06258 29.21177 33994 ft 455 kts 326°
2026-05-04 06:53 41.11140 29.15900 33990 ft 458 kts 321°
2026-05-04 06:54 41.15204 29.09315 33979 ft 466 kts 307°
2026-05-04 06:54 41.18782 29.02137 33976 ft 467 kts 307°
2026-05-04 06:55 41.22378 28.94951 33979 ft 467 kts 307°
2026-05-04 06:55 41.25954 28.87803 33989 ft 468 kts 307°
2026-05-04 06:57 41.40307 28.58847 34009 ft 471 kts 307°
2026-05-04 06:58 41.43908 28.51545 34016 ft 471 kts 307°
2026-05-04 06:58 41.47509 28.44229 34017 ft 472 kts 307°
2026-05-04 06:59 41.51605 28.37495 34021 ft 465 kts 320°
2026-05-04 06:59 41.56222 28.31441 34024 ft 466 kts 320°
2026-05-04 07:01 41.74684 28.07051 34031 ft 470 kts 320°
2026-05-04 07:02 41.79323 28.00882 34034 ft 470 kts 320°
2026-05-04 07:02 41.83961 27.94693 34046 ft 471 kts 320°
2026-05-04 07:03 41.88600 27.88487 34045 ft 471 kts 320°
2026-05-04 07:03 41.93239 27.82282 34051 ft 471 kts 320°
2026-05-04 07:04 41.97842 27.76119 34056 ft 471 kts 320°
2026-05-04 07:04 42.02443 27.69850 34058 ft 471 kts 319°
2026-05-04 07:05 42.07032 27.63544 34057 ft 471 kts 319°
2026-05-04 07:05 42.11619 27.57241 34062 ft 472 kts 319°
2026-05-04 07:06 42.18478 27.47794 34070 ft 472 kts 319°
2026-05-04 07:07 42.23073 27.41453 34072 ft 473 kts 318°
2026-05-04 07:09 42.41387 27.16014 34075 ft 473 kts 317°
2026-05-04 07:09 42.45972 27.09619 34075 ft 473 kts 317°
2026-05-04 07:10 42.50556 27.03222 34077 ft 473 kts 317°
2026-05-04 07:12 42.68801 26.77553 34082 ft 473 kts 316°
2026-05-04 07:12 42.73357 26.71103 34080 ft 473 kts 316°
2026-05-04 07:13 42.77879 26.64690 34088 ft 473 kts 316°
2026-05-04 07:13 42.82437 26.58205 34097 ft 473 kts 315°
2026-05-04 07:14 42.93670 26.42197 34100 ft 472 kts 315°
2026-05-04 07:15 42.98168 26.35760 34106 ft 472 kts 315°
2026-05-04 07:15 43.02698 26.29272 34111 ft 471 kts 315°
2026-05-04 07:16 43.07214 26.22782 34118 ft 471 kts 315°
2026-05-04 07:16 43.11685 26.16330 34122 ft 470 kts 315°
2026-05-04 07:17 43.16174 26.09837 34124 ft 470 kts 314°
2026-05-04 07:17 43.20664 26.03337 34129 ft 469 kts 314°
2026-05-04 07:18 43.25144 25.96848 34133 ft 468 kts 314°
2026-05-04 07:18 43.29608 25.90358 34153 ft 467 kts 314°
2026-05-04 07:19 43.34026 25.83917 34156 ft 465 kts 314°
2026-05-04 07:19 43.38452 25.77446 34154 ft 464 kts 314°
2026-05-04 07:20 43.42870 25.70975 34150 ft 463 kts 314°
2026-05-04 07:20 43.47270 25.64510 34145 ft 463 kts 314°
2026-05-04 07:22 43.65029 25.38978 34129 ft 461 kts 320°
2026-05-04 07:23 43.69864 25.33236 34125 ft 461 kts 320°
2026-05-04 07:23 43.74717 25.27454 34126 ft 461 kts 320°
2026-05-04 07:24 43.79559 25.21657 34128 ft 460 kts 320°
2026-05-04 07:24 43.84335 25.15918 34127 ft 460 kts 320°
2026-05-04 07:26 44.03048 24.93346 34135 ft 457 kts 320°
2026-05-04 07:27 44.07830 24.87542 34144 ft 456 kts 320°
2026-05-04 07:27 44.12572 24.81794 34147 ft 455 kts 321°
2026-05-04 07:28 44.17327 24.76012 34146 ft 454 kts 321°
2026-05-04 07:28 44.22073 24.70211 34151 ft 453 kts 321°
2026-05-04 07:29 44.26806 24.64408 34153 ft 453 kts 321°
2026-05-04 07:29 44.31534 24.58618 34153 ft 452 kts 321°
2026-05-04 07:30 44.36213 24.52865 34152 ft 451 kts 321°
2026-05-04 07:30 44.40921 24.47069 34148 ft 450 kts 321°
2026-05-04 07:31 44.45617 24.41275 34146 ft 450 kts 321°
2026-05-04 07:33 44.64333 24.18042 34150 ft 450 kts 321°
2026-05-04 07:33 44.69011 24.12202 34151 ft 450 kts 321°
2026-05-04 07:34 44.73648 24.06393 34149 ft 449 kts 321°
2026-05-04 07:34 44.78310 24.00549 34149 ft 449 kts 321°
2026-05-04 07:35 44.82968 23.94702 34156 ft 448 kts 321°
2026-05-04 07:35 44.87600 23.88859 34165 ft 446 kts 321°
2026-05-04 07:36 44.92179 23.83077 34167 ft 444 kts 321°
2026-05-04 07:38 45.10475 23.59860 34166 ft 440 kts 321°
2026-05-04 07:38 45.14990 23.54097 34167 ft 440 kts 321°
2026-05-04 07:39 45.19527 23.48285 34170 ft 439 kts 321°
2026-05-04 07:39 45.24060 23.42478 34174 ft 439 kts 321°
2026-05-04 07:40 45.28588 23.36656 34177 ft 439 kts 321°
2026-05-04 07:40 45.33109 23.30832 34175 ft 438 kts 321°
2026-05-04 07:41 45.37590 23.25046 34174 ft 437 kts 321°
2026-05-04 07:41 45.42084 23.19227 34171 ft 437 kts 321°
2026-05-04 07:42 45.46574 23.13395 34167 ft 436 kts 321°
2026-05-04 07:42 45.51052 23.07568 34167 ft 436 kts 321°
2026-05-04 07:43 45.55500 23.01774 34168 ft 436 kts 321°
2026-05-04 07:43 45.59977 22.95944 34169 ft 435 kts 321°
2026-05-04 07:44 45.64443 22.90101 34173 ft 435 kts 321°
2026-05-04 07:44 45.68904 22.84249 34176 ft 435 kts 321°
2026-05-04 07:45 45.73327 22.78439 34182 ft 435 kts 321°
2026-05-04 07:45 45.77778 22.72567 34184 ft 435 kts 321°
2026-05-04 07:46 45.82216 22.66696 34190 ft 434 kts 321°
2026-05-04 07:46 45.86571 22.60701 34192 ft 435 kts 319°
2026-05-04 07:47 45.90737 22.54498 34191 ft 435 kts 318°
2026-05-04 07:49 46.07479 22.29455 34191 ft 433 kts 318°
2026-05-04 07:49 46.11635 22.23250 34188 ft 433 kts 318°
2026-05-04 07:50 46.15802 22.16990 34186 ft 433 kts 318°
2026-05-04 07:50 46.19965 22.10726 34188 ft 433 kts 318°
2026-05-04 07:51 46.24127 22.04442 34191 ft 433 kts 318°
2026-05-04 07:51 46.28264 21.98189 34195 ft 433 kts 318°
2026-05-04 07:52 46.32427 21.91894 34199 ft 433 kts 318°
2026-05-04 07:52 46.36583 21.85587 34201 ft 432 kts 318°
2026-05-04 07:54 46.53113 21.60357 34195 ft 431 kts 317°
2026-05-04 07:55 46.57233 21.54026 34190 ft 431 kts 317°
2026-05-04 07:55 46.61322 21.47728 34190 ft 431 kts 317°
2026-05-04 07:56 46.65433 21.41391 34187 ft 431 kts 317°
2026-05-04 07:56 46.69539 21.35042 34189 ft 431 kts 317°
2026-05-04 07:57 46.73641 21.28681 34193 ft 431 kts 317°
2026-05-04 07:57 46.77715 21.22354 34194 ft 430 kts 317°
2026-05-04 07:58 46.81808 21.15992 34194 ft 430 kts 317°
2026-05-04 07:58 46.85894 21.09616 34193 ft 430 kts 316°
2026-05-04 07:59 46.89970 21.03229 34191 ft 429 kts 316°
2026-05-04 07:59 46.94041 20.96837 34190 ft 429 kts 316°
2026-05-04 08:00 46.98076 20.90486 34187 ft 429 kts 316°
2026-05-04 08:02 47.14291 20.64852 34190 ft 428 kts 316°
2026-05-04 08:02 47.18307 20.58464 34191 ft 429 kts 316°
2026-05-04 08:03 47.22344 20.52015 34192 ft 429 kts 315°
2026-05-04 08:03 47.26378 20.45563 34191 ft 428 kts 315°
2026-05-04 08:04 47.30411 20.39104 34190 ft 428 kts 315°
2026-05-04 08:04 47.34412 20.32678 34190 ft 428 kts 315°
2026-05-04 08:05 47.38429 20.26192 34189 ft 428 kts 315°
2026-05-04 08:05 47.42445 20.19699 34190 ft 428 kts 315°
2026-05-04 08:06 47.46460 20.13196 34190 ft 428 kts 315°
2026-05-04 08:06 47.50482 20.06693 34189 ft 428 kts 315°
2026-05-04 08:08 47.66474 19.80587 34185 ft 428 kts 314°
2026-05-04 08:11 47.84336 19.51114 34168 ft 428 kts 314°
2026-05-04 08:11 47.90286 19.41215 34167 ft 428 kts 314°
2026-05-04 08:12 47.94257 19.34612 34167 ft 427 kts 314°
2026-05-04 08:12 47.98219 19.28003 34167 ft 427 kts 314°
2026-05-04 08:13 48.02144 19.21420 34164 ft 427 kts 313°
2026-05-04 08:13 48.06088 19.14770 34153 ft 428 kts 313°
2026-05-04 08:14 48.09928 19.07973 34149 ft 428 kts 310°
2026-05-04 08:16 48.24371 18.79701 34134 ft 428 kts 309°
2026-05-04 08:16 48.28011 18.72628 34134 ft 428 kts 309°
2026-05-04 08:17 48.31643 18.65543 34135 ft 428 kts 309°
2026-05-04 08:17 48.35235 18.58499 34135 ft 428 kts 309°
2026-05-04 08:19 48.49632 18.30084 34125 ft 427 kts 308°
2026-05-04 08:20 48.53234 18.22955 34121 ft 427 kts 308°
2026-05-04 08:20 48.56822 18.15821 34119 ft 427 kts 308°
2026-05-04 08:21 48.60403 18.08664 34115 ft 427 kts 308°
2026-05-04 08:21 48.63949 18.01546 34108 ft 426 kts 308°
2026-05-04 08:22 48.67514 17.94393 34102 ft 426 kts 308°
2026-05-04 08:24 48.81745 17.65660 34097 ft 427 kts 307°
2026-05-04 08:24 48.85298 17.58436 34096 ft 427 kts 307°
2026-05-04 08:25 48.88851 17.51189 34083 ft 427 kts 307°
2026-05-04 08:25 48.92396 17.43937 34086 ft 428 kts 307°
2026-05-04 08:27 49.05111 17.13610 34074 ft 429 kts 294°
2026-05-04 08:28 49.07536 17.05306 34073 ft 429 kts 294°
2026-05-04 08:28 49.09960 16.96982 34071 ft 429 kts 294°
2026-05-04 08:29 49.12373 16.88667 34069 ft 429 kts 294°
2026-05-04 08:31 49.21961 16.55392 34053 ft 428 kts 293°
2026-05-04 08:33 49.31441 16.21986 34046 ft 429 kts 292°
2026-05-04 08:35 49.40851 15.88389 34051 ft 429 kts 292°
2026-05-04 08:35 49.43177 15.79973 34048 ft 428 kts 292°
2026-05-04 08:37 49.51284 15.50563 34044 ft 428 kts 291°
2026-05-04 08:38 49.53569 15.42176 34045 ft 428 kts 291°
2026-05-04 08:38 49.55866 15.33726 34050 ft 428 kts 291°
2026-05-04 08:40 49.64972 14.99972 34047 ft 426 kts 291°
2026-05-04 08:41 49.67220 14.91532 34046 ft 425 kts 291°
2026-05-04 08:41 49.69464 14.83094 34045 ft 424 kts 291°
2026-05-04 08:42 49.71697 14.74676 34046 ft 424 kts 291°
2026-05-04 08:42 49.73931 14.66242 34048 ft 424 kts 291°
2026-05-04 08:43 49.76133 14.57866 34049 ft 423 kts 290°
2026-05-04 08:43 49.78347 14.49444 34050 ft 422 kts 290°
2026-05-04 08:44 49.80546 14.41045 34047 ft 421 kts 290°
2026-05-04 08:46 49.89221 14.07512 34034 ft 419 kts 290°
2026-05-04 08:46 49.91699 13.99339 34030 ft 420 kts 297°
2026-05-04 08:47 49.94554 13.91418 34028 ft 420 kts 297°
2026-05-04 08:47 49.97366 13.83537 34034 ft 420 kts 297°
2026-05-04 08:48 50.00187 13.75580 34029 ft 420 kts 297°
2026-05-04 08:48 50.03006 13.67625 34030 ft 420 kts 296°
2026-05-04 08:49 50.05830 13.59669 34045 ft 420 kts 296°
2026-05-04 08:50 50.15628 13.31803 34048 ft 419 kts 296°
2026-05-04 08:51 50.18415 13.23816 34049 ft 419 kts 296°
2026-05-04 08:51 50.21173 13.15886 34051 ft 419 kts 295°
2026-05-04 08:52 50.23944 13.07886 34053 ft 418 kts 295°
2026-05-04 08:52 50.26707 12.99897 34054 ft 418 kts 295°
2026-05-04 08:54 50.37685 12.67917 34056 ft 417 kts 294°
2026-05-04 08:55 50.40451 12.59920 34056 ft 418 kts 296°
2026-05-04 08:55 50.43487 12.52153 34053 ft 418 kts 298°
2026-05-04 09:01 50.75188 11.70260 34046 ft 418 kts 296°
2026-05-04 09:01 50.78167 11.62368 34045 ft 418 kts 296°
2026-05-04 09:02 50.81143 11.54477 34042 ft 418 kts 296°
2026-05-04 09:02 50.84124 11.46561 34033 ft 418 kts 296°
2026-05-04 09:03 50.87072 11.38711 34028 ft 418 kts 296°
2026-05-04 09:03 50.90039 11.30774 34035 ft 418 kts 296°
2026-05-04 09:04 50.92996 11.22852 34036 ft 418 kts 296°
2026-05-04 09:04 50.95961 11.14891 34027 ft 419 kts 295°
2026-05-04 09:05 50.98886 11.06981 34046 ft 418 kts 296°
2026-05-04 09:05 51.01821 10.99032 34046 ft 416 kts 295°
2026-05-04 09:06 51.04741 10.91103 34040 ft 416 kts 295°
2026-05-04 09:08 51.15853 10.60698 34028 ft 415 kts 295°
2026-05-04 09:08 51.18718 10.52793 34028 ft 415 kts 295°
2026-05-04 09:09 51.21596 10.44819 34024 ft 415 kts 295°
2026-05-04 09:09 51.24465 10.36839 34028 ft 415 kts 294°
2026-05-04 09:10 51.26732 10.28462 34032 ft 410 kts 286°
2026-05-04 09:10 51.28776 10.20037 34031 ft 410 kts 286°
2026-05-04 09:11 51.30822 10.11544 34036 ft 409 kts 286°
2026-05-04 09:11 51.32860 10.03051 34036 ft 409 kts 286°
2026-05-04 09:12 51.34895 9.94560 34028 ft 409 kts 286°
2026-05-04 09:14 51.42959 9.60585 34034 ft 409 kts 285°
2026-05-04 09:14 51.44962 9.52044 34027 ft 409 kts 285°
2026-05-04 09:15 51.46948 9.43579 34033 ft 408 kts 285°
2026-05-04 09:15 51.48935 9.35053 34023 ft 408 kts 285°
2026-05-04 09:17 51.57804 8.96613 34021 ft 408 kts 285°
2026-05-04 09:18 51.59754 8.88047 34019 ft 408 kts 285°
2026-05-04 09:18 51.61715 8.79471 34023 ft 408 kts 285°
2026-05-04 09:19 51.63659 8.70919 33710 ft 405 kts 285°
2026-05-04 09:19 51.64617 8.66661 33461 ft 402 kts 285°
2026-05-04 09:19 51.65549 8.62496 33214 ft 400 kts 285°
2026-05-04 09:20 51.66487 8.58291 32958 ft 398 kts 285°
2026-05-04 09:20 51.67419 8.54104 32702 ft 396 kts 284°
2026-05-04 09:20 51.68347 8.49939 32459 ft 394 kts 285°
2026-05-04 09:20 51.69268 8.45804 32211 ft 392 kts 285°
2026-05-04 09:21 51.70187 8.41681 31961 ft 390 kts 285°
2026-05-04 09:21 51.71102 8.37574 31711 ft 388 kts 285°
2026-05-04 09:21 51.72010 8.33492 31461 ft 386 kts 284°
2026-05-04 09:21 51.72909 8.29428 31211 ft 384 kts 284°
2026-05-04 09:22 51.73790 8.25438 30964 ft 382 kts 284°
2026-05-04 09:22 51.74675 8.21416 30713 ft 380 kts 284°
2026-05-04 09:22 51.75556 8.17414 30463 ft 377 kts 284°
2026-05-04 09:22 51.76432 8.13435 30211 ft 375 kts 284°
2026-05-04 09:23 51.77304 8.09482 29961 ft 373 kts 284°
2026-05-04 09:23 51.78169 8.05537 29711 ft 371 kts 284°
2026-05-04 09:23 51.79024 8.01611 29454 ft 370 kts 284°
2026-05-04 09:23 51.79875 7.97690 29198 ft 369 kts 284°
2026-05-04 09:25 51.85792 7.70540 27450 ft 366 kts 288°
2026-05-04 09:25 51.86896 7.66807 27208 ft 367 kts 291°
2026-05-04 09:26 51.88011 7.63093 26964 ft 367 kts 290°
2026-05-04 09:26 51.89101 7.59425 26711 ft 366 kts 290°
2026-05-04 09:26 51.90198 7.55710 26462 ft 366 kts 290°
2026-05-04 09:26 51.91291 7.51997 26212 ft 365 kts 290°
2026-05-04 09:27 51.92383 7.48292 25960 ft 364 kts 290°
2026-05-04 09:27 51.93470 7.44598 25710 ft 363 kts 290°
2026-05-04 09:27 51.94557 7.40909 25460 ft 363 kts 290°
2026-05-04 09:27 51.95644 7.37224 25212 ft 362 kts 290°
2026-05-04 09:28 51.96729 7.33540 24960 ft 361 kts 290°
2026-05-04 09:28 51.97805 7.29874 24709 ft 361 kts 290°
2026-05-04 09:28 51.98866 7.26245 24461 ft 360 kts 290°
2026-05-04 09:28 51.99935 7.22587 24209 ft 359 kts 290°
2026-05-04 09:29 52.01001 7.18936 23952 ft 357 kts 290°
2026-05-04 09:29 52.02063 7.15294 23720 ft 355 kts 290°
2026-05-04 09:29 52.03113 7.11687 23468 ft 353 kts 290°
2026-05-04 09:29 52.04161 7.08087 23211 ft 352 kts 290°
2026-05-04 09:30 52.05203 7.04500 22965 ft 351 kts 290°
2026-05-04 09:30 52.06241 7.00921 22711 ft 349 kts 290°
2026-05-04 09:30 52.07272 6.97357 22460 ft 348 kts 290°
2026-05-04 09:30 52.08284 6.93854 22204 ft 347 kts 290°
2026-05-04 09:31 52.09299 6.90304 21963 ft 345 kts 290°
2026-05-04 09:31 52.10305 6.86763 21716 ft 344 kts 290°
2026-05-04 09:31 52.11304 6.83242 21450 ft 341 kts 290°
2026-05-04 09:31 52.12297 6.79761 21047 ft 338 kts 290°
2026-05-04 09:32 52.13291 6.76308 20613 ft 335 kts 288°
2026-05-04 09:32 52.14101 6.72773 20185 ft 332 kts 286°
2026-05-04 09:34 52.19502 6.48490 17266 ft 321 kts 286°
2026-05-04 09:34 52.20253 6.45061 16863 ft 320 kts 286°
2026-05-04 09:34 52.21001 6.41654 16468 ft 318 kts 287°
2026-05-04 09:34 52.21739 6.38310 16073 ft 317 kts 287°
2026-05-04 09:35 52.22492 6.34897 15688 ft 316 kts 287°
2026-05-04 09:35 52.23220 6.31573 15330 ft 314 kts 287°
2026-05-04 09:35 52.23948 6.28231 14949 ft 312 kts 287°
2026-05-04 09:35 52.24671 6.24907 14557 ft 311 kts 287°
2026-05-04 09:37 52.29674 6.01821 11764 ft 305 kts 287°
2026-05-04 09:37 52.30375 5.98548 11351 ft 304 kts 287°
2026-05-04 09:38 52.31071 5.95307 10958 ft 303 kts 287°
2026-05-04 09:38 52.31767 5.92060 10546 ft 302 kts 287°
2026-05-04 09:38 52.32463 5.88819 10147 ft 301 kts 288°
2026-05-04 09:38 52.33144 5.85645 10001 ft 291 kts 288°
2026-05-04 09:39 52.33805 5.82559 9737 ft 286 kts 288°
2026-05-04 09:39 52.34451 5.79518 9355 ft 285 kts 288°
2026-05-04 09:39 52.35107 5.76424 8876 ft 288 kts 288°
2026-05-04 09:39 52.35757 5.73352 8554 ft 285 kts 288°
2026-05-04 09:40 52.36402 5.70294 8175 ft 283 kts 288°
2026-05-04 09:40 52.37039 5.67271 7926 ft 277 kts 288°
2026-05-04 09:40 52.37657 5.64349 7798 ft 266 kts 288°
2026-05-04 09:40 52.38227 5.61531 7671 ft 255 kts 282°
2026-05-04 09:41 52.38374 5.58704 7469 ft 246 kts 264°
2026-05-04 09:42 52.36540 5.39903 6167 ft 236 kts 260°
2026-05-04 09:43 52.36278 5.37251 6056 ft 236 kts 260°
2026-05-04 09:43 52.36016 5.34602 5946 ft 236 kts 260°
2026-05-04 09:43 52.35759 5.32004 5838 ft 235 kts 260°
2026-05-04 09:43 52.35494 5.29359 5728 ft 235 kts 260°
2026-05-04 09:44 52.35230 5.26732 5624 ft 235 kts 260°
2026-05-04 09:44 52.34965 5.24097 5514 ft 235 kts 260°
2026-05-04 09:44 52.34698 5.21455 5400 ft 234 kts 260°
2026-05-04 09:46 52.30605 5.04924 4653 ft 233 kts 223°
2026-05-04 09:46 52.29407 5.03134 4551 ft 233 kts 223°
2026-05-04 09:46 52.28216 5.01352 4437 ft 233 kts 223°
2026-05-04 09:47 52.27022 4.99563 4334 ft 232 kts 223°
2026-05-04 09:47 52.25834 4.97785 4227 ft 232 kts 223°
2026-05-04 09:49 52.17520 4.85402 3475 ft 231 kts 222°
2026-05-04 09:49 52.16331 4.83634 3379 ft 231 kts 222°
2026-05-04 09:49 52.15154 4.81883 3266 ft 231 kts 222°
2026-05-04 09:51 52.11720 4.76794 2970 ft 230 kts 222°
2026-05-04 09:51 52.10534 4.75038 2861 ft 230 kts 222°
2026-05-04 09:51 52.09357 4.73296 2756 ft 225 kts 222°
2026-05-04 09:51 52.08218 4.71611 2651 ft 216 kts 222°
2026-05-04 09:52 52.07125 4.69995 2557 ft 208 kts 221°
2026-05-04 09:52 52.06075 4.68446 2473 ft 204 kts 222°
2026-05-04 09:52 52.05031 4.66909 2384 ft 202 kts 222°
2026-05-04 09:52 52.04097 4.65215 2302 ft 201 kts 236°
2026-05-04 09:53 52.03342 4.63305 2199 ft 201 kts 237°
2026-05-04 09:53 52.02591 4.61387 2112 ft 201 kts 237°
2026-05-04 09:53 52.01834 4.59469 2002 ft 200 kts 237°
2026-05-04 09:53 52.01591 4.58856 1938 ft 198 kts 237°
2026-05-04 09:54 52.01340 4.58222 1860 ft 196 kts 237°
2026-05-04 09:55 51.97922 4.49631 654 ft 145 kts 238°
2026-05-04 09:55 51.97381 4.48270 462 ft 143 kts 238°
2026-05-04 09:55 51.96841 4.46917 276 ft 143 kts 238°
2026-05-04 09:55 51.96486 4.46036 151 ft 143 kts 238°
2026-05-04 09:56 51.95797 4.44300 -4 ft 125 kts 237°
2026-05-04 09:56 51.95443 4.43410 -5 ft 52 kts 237°
2026-05-04 09:56 51.95361 4.43207 -5 ft 22 kts 236°
2026-05-04 09:56 51.95277 4.43103 -5 ft 10 kts 187°
2026-05-04 09:57 51.95234 4.43099 -5 ft 9 kts 182°
2026-05-04 09:57 51.95161 4.43115 -5 ft 7 kts 141°
2026-05-04 09:57 51.95154 4.43179 -5 ft 5 kts 77°
2026-05-04 09:57 51.95171 4.43225 -5 ft 5 kts 57°
2026-05-04 09:58 51.95196 4.43287 -5 ft 8 kts 57°
2026-05-04 09:58 51.95224 4.43356 -5 ft 7 kts 57°
2026-05-04 09:58 51.95241 4.43417 -5 ft 6 kts 92°
2026-05-04 10:00 51.94986 4.43549 -6 ft 3 kts 280°
2026-05-04 10:00 51.95002 4.43520 -6 ft 3 kts 324°
2026-05-04 10:02 51.95016 4.43506 -6 ft 0 kts 326°